CZ-2D DEB, 38178

Orbit data source: Space-Track

CZ-2D DEB, 38178 is space debris in SSO originally from a launch on Sun, 20 Nov 2011 UTC launched from the Jiuquan Satellite Launch Center, China (JSC). Debris objects in space refer to the collection of defunct objects orbiting the Earth. Examples of debris include non-operational satellites, rocket bodies, and fragments generated from explosions, collisions, or faulty payload assembly.

Loading next visibility...
Identifier
38178, 2011-068F
Orbit
SSO
Country
Flag of CNCN / PRC
Related business
Manufacturer
Unknown
Mission
Spacecraft
Bus & Motor
Unknown
Mass
Unknown
Launch date (UTC)
2011-11-20 (14 years ago)
Launch vehicle
Unknown
Launch site
Jiuquan Satellite Launch Center, China (JSC)
Object type
Payload
Rocket body
Debris
Shape & HBR
Unknown shape, 0.1 m
Radar Cross Section
Small (<0.1 m²)

Expand to show TLE details & history
Last TLE update: 1 day ago

TLE from 1 day ago
0 CZ-2D DEB
1 38178U 11068F   26094.53787958  .00002079  00000-0  63040-3 0  9990
2 38178  98.7320 122.3380 0117715 277.4865 239.6317 14.39447158747519
Epoch: 2026-04-04T12:54Z
TLE epoch observation values (Epoch: 2026-04-04T12:54:32.795Z)
Latitude
23.76426°
Longitude
-80.29768°
Altitude
806.442 km
Speed
7.43 km/s
True Right ascension
20h 24m 46s
True Declination
23° 38' 19"
Sunlit
Object was in daylight at epoch
Visualization orbit readout
Latitude
Unknown
Longitude
Unknown
Altitude
Unknown
Speed
Unknown
Apparent Right ascension
Unknown
Apparent Declination
Unknown
Sunlit
N/A
Visualization observer readout
Local Sidereal Time
21:58:02
Azimuth
Unknown
Elevation
Unknown
Doppler factor
Unknown
Orbital elements
Apogee altitude
841.455 km
Perigee altitude
673.462 km
Semi-major axis
7,135.596 km
Eccentricity
0.01177
Inclination
98.732°
RAAN
122.338°
Arg. of periapsis
277.4865°
True anomaly
238.47654°
Mean anomaly
239.6317°
Eccentric anomaly
239.05325°
Mean motion
3.60079 °/min
Orbital period
99.98 mins
BSTAR
0.0006304
Loading maneuver chart data...
Computing Atmospheric mass density...
Loading historical data...
Loading historical data...
Loading historical data...
Loading historical data...
Loading historical data...
Loading historical data...
Loading historical data...

Documentation

Showing up to 5 results
|